[[{"header":{"parameterUnit":"m.s-1","parameterCategory":1,"la1":30.2991,"la2":30.254,"lo1":-89.0895,"lo2":-89.0444,"dy":0.0017,"dx":0.0017,"nx":28,"ny":28,"refTime":"2025-03-22T21:00:00:Z","depth":0,"parameterNumber":2,"parameterNumberName":"U-component_of_WINDS"},"data":[0,0,0,0,0,0,0,0,0,0,0,0,0,0,0,0,0,0,0,0,0,0,0,0,0,0,0,0,0,0,0,0,0,0,0,0,0,0,0,0,0,0,0,0,0,0,0,0,0,0,0,0,0,0,0,0,0,0,-0.9738,-0.9738,0,-0.9768,-0.9768,-0.9768,-0.9783,-0.9783,-0.9783,-0.9783,-0.9815,-0.9816,-0.9817,0,0,0,0,0,0,0,0,0,0,0,0,0,-0.9695,-0.9696,-0.9738,-0.9738,-0.9739,-0.9768,-0.9768,-0.9768,-0.9783,-0.9783,-0.9783,-0.9783,-0.9815,-0.9816,-0.9817,0,0,0,0,0,0,0,0,0,0,0,0,0,-0.9718,-0.9696,-0.9738,-0.9749,-0.9751,-0.9768,-0.9768,-0.9769,-0.9783,-0.9783,-0.9783,-0.9783,-0.9814,-0.9815,-0.9817,-0.9825,0,0,-0.9821,-0.9821,0,0,0,0,0,0,0,0,-0.9717,-0.972,-0.9747,-0.9749,-0.975,-0.9772,-0.9765,-0.9788,-0.9783,-0.9771,-0.9783,-0.9783,-0.9801,-0.9803,-0.9809,-0.9826,-0.9828,-0.9821,-0.9822,-0.9822,-0.9822,0,0,0,0,0,0,0,-0.9715,-0.9719,-0.975,-0.9748,-0.975,-0.9754,-0.9757,-0.9769,-0.9785,-0.9772,-0.9773,-0.9776,-0.9801,-0.9807,-0.9809,-0.9828,-0.9821,-0.9822,-0.9823,-0.9823,-0.9854,-0.9854,0,0,0,0,0,0,-0.9712,-0.9717,-0.9749,-0.9751,-0.9733,-0.9754,-0.9758,-0.9765,-0.9785,-0.9788,-0.9776,-0.9777,-0.9805,-0.9808,-0.9811,-0.9821,-0.9822,-0.9823,-0.9824,-0.9854,-0.9854,-0.9854,0,0,0,0,0,0,-0.9711,-0.9714,-0.9748,-0.9734,-0.9739,-0.9755,-0.9763,-0.9765,-0.9771,-0.9789,-0.9792,-0.9779,-0.9805,-0.9809,-0.9821,-0.9823,-0.9824,-0.9825,-0.9854,-0.9854,-0.9854,-0.9843,0,0,0,0,0,0,-0.971,-0.9714,-0.9717,-0.9734,-0.974,-0.9757,-0.9763,-0.9766,-0.9773,-0.9774,-0.9792,-0.9795,-0.9806,-0.9819,-0.9822,-0.9825,-0.9826,-0.9854,-0.9854,-0.9854,-0.9843,-0.9843,-0.9842,0,0,0,0,0,-0.9708,-0.9713,-0.9717,-0.9721,-0.9743,-0.9757,-0.976,-0.9772,-0.9773,-0.9777,-0.9788,-0.9795,-0.9822,-0.982,-0.9824,-0.9827,-0.9854,-0.9854,-0.9854,-0.9844,-0.9843,-0.9842,0,0,0,0,0,0,-0.9696,-0.9716,-0.972,-0.9731,-0.9742,-0.976,-0.9764,-0.9771,-0.9782,-0.9783,-0.9797,-0.9801,-0.9812,-0.982,-0.9818,-0.9836,-0.9839,-0.9839,-0.9829,-0.9829,-0.9828,-0.9826,-0.9827,0,0,0,0,0,-0.9695,-0.9704,-0.9721,-0.9728,-0.9734,-0.9748,-0.9754,-0.9762,-0.9775,-0.978,-0.9792,-0.9804,-0.9815,-0.9823,-0.9834,-0.9845,-0.9849,-0.9848,-0.9848,-0.9847,-0.9848,-0.9854,-0.9854,-0.9855,-0.9855,-0.9855,0,0,-0.9692,-0.9704,-0.9709,-0.9726,-0.9736,-0.9746,-0.9752,-0.9762,-0.9769,-0.9781,-0.9793,-0.9803,-0.9817,-0.9829,-0.9834,-0.9836,-0.9849,-0.9847,-0.9847,-0.9848,-0.9854,-0.9854,-0.9854,-0.9855,-0.9855,-0.9855,0,0,-0.9692,-0.9702,-0.9709,-0.9719,-0.9733,-0.9742,-0.9744,-0.976,-0.9767,-0.9779,-0.9788,-0.9798,-0.9817,-0.9827,-0.9834,-0.9838,-0.9845,-0.9841,-0.9838,-0.9844,-0.9844,-0.9844,-0.9846,-0.9846,-0.9842,-0.9842,-0.9842,0,-0.9687,-0.9701,-0.9713,-0.9722,-0.9729,-0.974,-0.9748,-0.9757,-0.9774,-0.9779,-0.9781,-0.9805,-0.9816,-0.983,-0.9831,-0.9837,-0.9839,-0.9839,-0.9843,-0.9843,-0.9844,-0.9845,-0.9845,-0.9841,-0.9841,-0.9841,-0.9841,0,-0.9695,-0.9704,-0.9709,-0.9725,-0.9733,-0.9741,-0.9754,-0.9761,-0.9768,-0.9777,-0.9789,-0.9802,-0.9817,-0.982,-0.9828,-0.9835,-0.9836,-0.984,-0.9844,-0.9843,-0.9844,-0.9845,-0.984,-0.9841,-0.9841,-0.9841,0,0,-0.9689,-0.971,-0.9712,-0.9719,-0.9735,-0.9743,-0.9752,-0.9765,-0.9771,-0.9783,-0.9791,-0.9807,-0.9811,-0.9819,-0.9828,-0.9833,-0.9835,-0.9836,-0.9837,-0.9836,-0.9844,-0.9841,-0.9841,-0.9839,-0.9839,-0.9839,-0.9843,0,-0.9691,-0.9707,-0.9717,-0.9729,-0.9739,-0.9749,-0.9757,-0.9768,-0.9777,-0.9786,-0.9796,-0.9807,-0.9811,-0.9816,-0.9822,-0.9833,-0.9836,-0.9833,-0.9847,-0.9848,-0.9843,-0.9842,-0.9839,-0.9841,-0.9844,-0.9844,-0.9844,0,-0.9696,-0.9707,-0.9719,-0.9734,-0.9739,-0.9745,-0.9758,-0.9767,-0.978,-0.9786,-0.9795,-0.9804,-0.9814,-0.9816,-0.9831,-0.9828,-0.9835,-0.9841,-0.9841,-0.9843,-0.9846,-0.9844,-0.9842,-0.9843,-0.9845,-0.9845,-0.9845,0,-0.969,-0.9708,-0.9718,-0.9724,-0.9741,-0.9746,-0.9754,-0.9766,-0.9774,-0.9785,-0.979,-0.9803,-0.981,-0.9819,-0.9831,-0.9832,-0.9845,-0.9848,-0.985,-0.985,-0.9853,-0.9852,-0.9852,-0.9857,-0.9857,-0.9857,-0.9857,0,-0.9692,-0.9699,-0.9715,-0.9721,-0.973,-0.9742,-0.975,-0.9759,-0.977,-0.9779,-0.9788,-0.9796,-0.9811,-0.982,-0.983,-0.9841,-0.9844,-0.9849,-0.9852,-0.9848,-0.9848,-0.9853,-0.9853,-0.9857,-0.9857,-0.9857,-0.9857,0,-0.9687,-0.9698,-0.9709,-0.9725,-0.9729,-0.9735,-0.9748,-0.9755,-0.9764,-0.9774,-0.9778,-0.9792,-0.9804,-0.9816,-0.9833,-0.9839,-0.9849,-0.9853,-0.9845,-0.9846,-0.9848,-0.9847,-0.9851,-0.9852,-0.9856,-0.9856,-0.9855,0,-0.9687,-0.9693,-0.9709,-0.9715,-0.9722,-0.9732,-0.9739,-0.9751,-0.9758,-0.9773,-0.9778,-0.979,-0.9801,-0.9819,-0.9832,-0.9844,-0.9848,-0.9848,-0.985,-0.9846,-0.9848,-0.9847,-0.9848,-0.9848,-0.9848,-0.9848,-0.9847,0,-0.9687,-0.9692,-0.9701,-0.9713,-0.9721,-0.9731,-0.9741,-0.9745,-0.9759,-0.9767,-0.9779,-0.9787,-0.9803,-0.9815,-0.9829,-0.9838,-0.9845,-0.9847,-0.9848,-0.9845,-0.984,-0.9843,-0.9843,-0.9847,-0.9847,-0.9847,-0.9847,-0.9847,-0.9685,-0.969,-0.9702,-0.9713,-0.9721,-0.9731,-0.9737,-0.9747,-0.9757,-0.977,-0.9777,-0.9789,-0.9802,-0.9821,-0.9829,-0.9839,-0.9841,-0.9843,-0.9843,-0.9844,-0.9843,-0.9838,-0.9842,-0.9842,-0.9842,-0.9842,-0.9842,0,-0.9685,-0.9693,-0.9702,-0.9716,-0.9724,-0.9729,-0.9741,-0.9747,-0.9757,-0.9768,-0.9778,-0.9792,-0.9804,-0.9817,-0.983,-0.9835,-0.9839,-0.9838,-0.9838,-0.984,-0.984,-0.9838,-0.9835,-0.9835,-0.9835,-0.9835,-0.9835,-0.9835,-0.9686,-0.9696,-0.9702,-0.9716,-0.9724,-0.9735,-0.9741,-0.975,-0.9759,-0.9773,-0.9783,-0.9791,-0.9803,-0.9817,-0.9828,-0.9831,-0.9836,-0.9834,-0.9839,-0.9839,-0.984,-0.984,-0.9838,-0.9835,-0.9835,-0.9837,-0.9837,-0.9837]},{"header":{"parameterUnit":"m.s-1","parameterCategory":1,"la1":30.2991,"la2":30.254,"lo1":-89.0895,"lo2":-89.0444,"dy":0.0017,"dx":0.0017,"nx":28,"ny":28,"refTime":"2025-03-22T21:00:00:Z","depth":0,"parameterNumber":3,"parameterNumberName":"V-component_of_WINDS"},"data":[0,0,0,0,0,0,0,0,0,0,0,0,0,0,0,0,0,0,0,0,0,0,0,0,0,0,0,0,0,0,0,0,0,0,0,0,0,0,0,0,0,0,0,0,0,0,0,0,0,0,0,0,0,0,0,0,0,0,5.4366,5.4366,0,5.4401,5.4401,5.4402,5.4346,5.4344,5.4342,5.434,5.4374,5.4376,5.4379,0,0,0,0,0,0,0,0,0,0,0,0,0,5.4249,5.4251,5.4366,5.4366,5.4367,5.4401,5.4402,5.4402,5.4346,5.4344,5.4341,5.4339,5.4373,5.4376,5.4379,0,0,0,0,0,0,0,0,0,0,0,0,0,5.4293,5.4252,5.4366,5.4343,5.4341,5.4401,5.4402,5.4402,5.4347,5.4344,5.4341,5.4338,5.4372,5.4376,5.438,5.4463,0,0,5.4392,5.4394,0,0,0,0,0,0,0,0,5.4291,5.4298,5.4346,5.4345,5.4343,5.4366,5.4372,5.4422,5.4347,5.4345,5.434,5.4337,5.4373,5.4377,5.439,5.4464,5.4466,5.4393,5.4395,5.4397,5.4398,0,0,0,0,0,0,0,5.4288,5.4296,5.438,5.4347,5.4345,5.4331,5.4334,5.4382,5.4375,5.4345,5.4341,5.4346,5.4372,5.4386,5.439,5.4466,5.4392,5.4396,5.4399,5.44,5.4611,5.4614,0,0,0,0,0,0,5.4288,5.4294,5.4379,5.4381,5.4309,5.4335,5.4339,5.4362,5.4374,5.4373,5.4348,5.4343,5.4381,5.4386,5.4391,5.449,5.4397,5.44,5.4403,5.4608,5.4612,5.4616,0,0,0,0,0,0,5.4285,5.4296,5.4377,5.4336,5.4345,5.434,5.4366,5.4364,5.4378,5.4377,5.4375,5.4364,5.4379,5.4386,5.4446,5.4491,5.4402,5.4406,5.4604,5.4609,5.4614,5.4688,0,0,0,0,0,0,5.4282,5.4295,5.4327,5.4337,5.4348,5.4432,5.4369,5.4367,5.4385,5.4379,5.4391,5.439,5.4377,5.444,5.445,5.4495,5.4409,5.46,5.4607,5.4612,5.4682,5.4695,5.4706,0,0,0,0,0,5.4278,5.4346,5.4329,5.4339,5.4387,5.4434,5.444,5.4424,5.4389,5.4421,5.442,5.439,5.4484,5.4447,5.4457,5.4504,5.4598,5.4605,5.4612,5.4676,5.4692,5.4706,0,0,0,0,0,0,5.4339,5.4346,5.4328,5.4401,5.4418,5.4425,5.4464,5.4441,5.4467,5.446,5.4438,5.4442,5.4507,5.4511,5.4469,5.4585,5.4535,5.4545,5.458,5.4596,5.4608,5.4605,5.4412,0,0,0,0,0,5.4361,5.44,5.4403,5.4467,5.4477,5.4469,5.4489,5.4475,5.4491,5.4498,5.4501,5.4518,5.4551,5.4573,5.4604,5.4682,5.4684,5.4719,5.4731,5.4742,5.475,5.4793,5.4809,5.4639,5.4639,5.4639,0,0,5.4407,5.4416,5.4441,5.448,5.4491,5.4531,5.4475,5.4519,5.4549,5.4504,5.4562,5.4565,5.4582,5.4652,5.4683,5.4658,5.4798,5.4751,5.4759,5.4762,5.4802,5.4819,5.4833,5.4644,5.4643,5.4642,0,0,5.4511,5.4521,5.4576,5.4589,5.4608,5.4602,5.4616,5.4627,5.4628,5.4686,5.4654,5.4688,5.4745,5.4759,5.4774,5.4885,5.4858,5.4895,5.4959,5.5001,5.5015,5.5027,5.5067,5.5082,5.4904,5.4904,5.4904,0,5.4565,5.4625,5.4607,5.4654,5.4673,5.4635,5.4691,5.4704,5.4731,5.4745,5.4716,5.4789,5.4797,5.4871,5.4898,5.4911,5.4926,5.4894,5.5014,5.5026,5.5037,5.5075,5.5091,5.4908,5.4908,5.4907,5.4907,0,5.4691,5.4733,5.4775,5.4804,5.4827,5.4878,5.4868,5.4893,5.4878,5.4876,5.4936,5.4945,5.4977,5.4993,5.4978,5.5065,5.5049,5.5018,5.4967,5.5058,5.5094,5.5108,5.4915,5.4913,5.4912,5.4911,0,0,5.4833,5.4853,5.4869,5.4883,5.4901,5.4933,5.4982,5.5015,5.5038,5.5058,5.5099,5.515,5.5122,5.5138,5.5124,5.5161,5.5251,5.5126,5.5126,5.5149,5.5348,5.5372,5.539,5.5233,5.5236,5.5238,5.5347,0,5.4938,5.5025,5.5011,5.5095,5.5134,5.51,5.5143,5.5159,5.5159,5.5191,5.519,5.5227,5.5187,5.5197,5.5232,5.5232,5.529,5.5224,5.5272,5.5274,5.5269,5.5408,5.5433,5.5536,5.5361,5.5364,5.5365,0,5.5071,5.5098,5.5187,5.5201,5.5216,5.5256,5.5285,5.5317,5.5334,5.5332,5.5351,5.5331,5.5381,5.5329,5.5398,5.5353,5.5372,5.5375,5.5379,5.5383,5.5325,5.5417,5.5569,5.5585,5.5387,5.5385,5.5384,0,5.5168,5.5226,5.5287,5.5299,5.5316,5.5345,5.5354,5.5368,5.539,5.5415,5.5429,5.546,5.5477,5.5501,5.549,5.5453,5.5562,5.5508,5.5561,5.5561,5.5585,5.5584,5.5743,5.5596,5.5596,5.5596,5.5596,0,5.5286,5.5342,5.5331,5.5368,5.543,5.5414,5.5475,5.5479,5.5493,5.553,5.5502,5.5538,5.552,5.5555,5.5547,5.5606,5.5613,5.5612,5.561,5.5616,5.5616,5.5628,5.5621,5.56,5.5599,5.5598,5.5598,0,5.5405,5.54,5.5464,5.5476,5.548,5.5525,5.5535,5.557,5.5568,5.5616,5.5626,5.5623,5.5662,5.5654,5.5696,5.5691,5.5765,5.5753,5.576,5.5757,5.5811,5.5806,5.5983,5.6006,5.5844,5.5846,5.5847,0,5.5481,5.5524,5.5541,5.5565,5.5576,5.5614,5.5636,5.5622,5.5646,5.567,5.5702,5.5739,5.5769,5.5833,5.5834,5.5868,5.5856,5.5916,5.5861,5.5866,5.5859,5.5857,5.5861,5.5927,5.5929,5.5931,5.5932,0,5.5618,5.5614,5.5647,5.568,5.5708,5.5732,5.5754,5.5775,5.5763,5.5791,5.5832,5.5855,5.5899,5.5937,5.5968,5.5976,5.5953,5.5949,5.5963,5.597,5.5973,5.5973,5.5791,5.5945,5.5944,5.5943,5.5942,5.5942,5.5719,5.5755,5.5774,5.5812,5.5827,5.5849,5.5883,5.5886,5.592,5.5956,5.5945,5.5992,5.601,5.6049,5.6061,5.6097,5.6075,5.6095,5.61,5.6105,5.6113,5.5967,5.6102,5.6102,5.6102,5.6101,5.6101,0,5.5855,5.5865,5.5901,5.5934,5.5964,5.594,5.5963,5.599,5.6032,5.6051,5.6081,5.6128,5.6165,5.617,5.6204,5.6233,5.6223,5.6242,5.624,5.6243,5.613,5.6115,5.625,5.625,5.625,5.625,5.625,5.625,5.5929,5.5991,5.5989,5.6058,5.6067,5.6114,5.6129,5.615,5.6165,5.6219,5.625,5.6253,5.6267,5.6302,5.6335,5.6336,5.635,5.6374,5.6371,5.6265,5.6251,5.6236,5.6222,5.6377,5.6377,5.648,5.6481,5.6482]}]]